Simultaneous Nadir Overpasses (SNOs) Predictions

Prediction of SNOs between NOAA-19 and NPP Satellite Orbit:

Table of predicted SNOs for the next 14.0 days since TLE Epoch: 11/4/2016
Index Date (NOAA-19) Time (NOAA-19) Lat,Lon (NOAA-19) SZA (NOAA-19 ) Date (NPP) Time (NPP) Lat,Lon (NPP) SZA (NPP ) Distance(km) Time Diff (sec)
1 11/15/2016 03:13:13 -80.94,-100.40 77.62 11/15/2016 03:14:26 -80.95,-100.50 77.63 2.17 73
2 11/15/2016 04:04:18 80.95, 67.01 102.38 11/15/2016 04:05:10 80.94, 67.06 102.34 0.90 52
3 11/15/2016 04:55:14 -80.95,-125.59 77.63 11/15/2016 04:55:55 -80.94,-125.55 77.66 1.11 41
4 11/15/2016 05:46:19 80.95, 41.82 102.36 11/15/2016 05:46:40 80.95, 41.65 102.37 3.11 21
5 11/15/2016 06:37:16 -80.95,-151.15 77.61 11/15/2016 06:37:26 -80.96,-151.32 77.59 3.28 10
6 11/15/2016
